This demonstration page uses our WeatherBlox Daily Observations layout. Learn more.

Left ArrowRight Arrow

Hourly Observations for July 20, 2021

Temp ( °F °C ) Dew Point ( °F °C ) Humidity (%) Winds ( mph kmh ) Pressure ( in mb ) Visibility ( mi km ) Precip ( " mm )
12:56 am 00:56 Clear 73 22.5 65 18.4 78 78 ENE 3 6 30.18 1022 10 16 0.00 0.00
1:56 am 01:56 Clear 73 22.5 65 18.2 77 77 Calm 30.18 1022 10 16 0.00 0.00
2:56 am 02:56 Clear 71 21.7 65 18.1 80 80 Calm 30.18 1022 10 16 0.00 0.00
3:56 am 03:56 Clear 70 20.9 65 18.3 85 85 Calm 30.18 1022 10 16 0.00 0.00
4:56 am 04:56 Clear 69 20.3 64 18 87 87 Calm 30.19 1022 10 16 0.00 0.00
5:56 am 05:56 Clear 67 19.6 65 18.2 92 92 Calm 30.19 1022 10 16 0.00 0.00
6:56 am 06:56 Sunny 67 19.4 64 17.9 91 91 Calm 30.20 1023 7 11 0.00 0.00
7:11 am 07:11 Partly Cloudy with Mist and Fog 68 20 66 19 94 94 Calm 30.20 1023 3 5 0.00 0.00
7:56 am 07:56 Mostly Sunny 71 21.8 66 18.8 83 83 Calm 30.21 1023 10 16 0.00 0.00
8:56 am 08:56 Mostly Cloudy 75 23.7 66 19 75 75 Calm 30.21 1023 10 16 0.00 0.00
9:56 am 09:56 Sunny 78 25.3 67 19.4 70 70 Calm 30.21 1023 10 16 0.00 0.00
10:56 am 10:56 Sunny 81 27.1 65 18.4 59 59 Calm 30.21 1023 10 16 0.00 0.00
11:56 am 11:56 Mostly Sunny 82 27.6 65 18.3 57 57 Calm 30.20 1023 10 16 0.00 0.00
12:45 pm 12:45 Mostly Sunny 84 29 64 18 51 51 SSE 7 11 30.18 1022 10 16 0.00 0.00
12:56 pm 12:56 Mostly Sunny 84 29.1 65 18.5 53 53 SSE 3 6 30.17 1022 8 13 0.00 0.00
1:56 pm 13:56 Mostly Sunny 85 29.2 64 17.7 50 50 SE 3 6 30.17 1022 10 16 0.00 0.00
2:56 pm 14:56 Mostly Sunny 86 29.9 62 16.6 45 45 SSE 7 11 30.15 1021 10 16 0.00 0.00
3:56 pm 15:56 Sunny 87 30.5 64 17.9 47 47 SW 7 11 30.13 1020 9 14 0.00 0.00
5:56 pm 17:56 undefined 84 28.8 63 17 49 49 Calm 30.12 1020 8 13 0.00 0.00
6:56 pm 18:56 undefined 84 28.8 64 17.6 51 51 S 5 7 30.11 1020 10 16 0.00 0.00
7:56 pm 19:56 Partly Cloudy 83 28.1 63 17.3 52 52 SSW 6 9 30.10 1019 10 16 0.00 0.00
8:56 pm 20:56 Mostly Clear 80 26.4 64 17.7 59 59 Calm 30.10 1019 10 16 0.00 0.00
9:56 pm 21:56 Mostly Clear 76 24.3 66 18.9 72 72 Calm 30.11 1020 10 16 0.00 0.00
10:56 pm 22:56 undefined 74 23.6 65 18.5 73 73 Calm 30.12 1020 10 16 0.00 0.00
11:56 pm 23:56 Clear 73 22.5 65 18.4 78 78 Calm 30.12 1020 10 16 0.00 0.00

Powered by AerisWeather